KB7STN Weather Reports


time (UTC)temp
F
wind
direction
speed
knots
gust
knots
rain 1hr
in
rain 24hr
in
rain mn
in
humidity
%
barometer
mb
20260502234223 72 150 0.0 1.7 0.00 0.00 0.00 17 1007.4
20260502233723 71 149 0.9 1.7 0.00 0.00 0.00 17 1007.4
20260502233223 71 151 1.7 5.2 0.00 0.00 0.00 16 1007.5
20260502232723 71 190 1.7 3.5 0.00 0.00 0.00 16 1007.4
20260502232223 71 180 1.7 5.2 0.00 0.00 0.00 17 1007.5
20260502231723 71 173 1.7 5.2 0.00 0.00 0.00 17 1007.6
20260502231223 71 167 1.7 5.2 0.00 0.00 0.00 18 1007.6
20260502230723 71 160 1.7 4.3 0.00 0.00 0.00 18 1007.6
20260502230223 71 153 1.7 6.1 0.00 0.00 0.00 17 1007.7
20260502225723 71 160 2.6 7.0 0.00 0.00 0.00 18 1007.7
20260502225223 71 164 1.7 6.1 0.00 0.00 0.00 18 1007.8
20260502224723 71 209 2.6 7.0 0.00 0.00 0.00 18 1007.8
20260502224223 71 198 1.7 4.3 0.00 0.00 0.00 19 1007.9
20260502223723 71 202 0.9 5.2 0.00 0.00 0.00 18 1008.1
20260502223223 71 188 0.9 2.6 0.00 0.00 0.00 18 1008.2
20260502222723 71 188 0.9 3.5 0.00 0.00 0.00 18 1008.3
20260502222223 71 202 0.9 3.5 0.00 0.00 0.00 19 1008.4
20260502221723 71 200 1.7 6.1 0.00 0.00 0.00 18 1008.5
20260502221223 71 161 0.9 5.2 0.00 0.00 0.00 18 1008.5
20260502220723 71 153 0.9 5.2 0.00 0.00 0.00 18 1008.7
20260502220223 70 196 1.7 3.5 0.00 0.00 0.00 19 1008.8
20260502215724 70 196 1.7 4.3 0.00 0.00 0.00 19 1008.8
20260502215223 71 175 2.6 6.1 0.00 0.00 0.00 19 1009.0
20260502214723 71 197 2.6 5.2 0.00 0.00 0.00 18 1009.1
20260502214223 70 174 2.6 6.1 0.00 0.00 0.00 17 1009.1
20260502213724 70 102 2.6 6.1 0.00 0.00 0.00 16 1009.1
20260502213223 70 171 3.5 7.0 0.00 0.00 0.00 17 1009.4
20260502212723 70 161 2.6 9.6 0.00 0.00 0.00 18 1009.4
20260502212224 70 222 3.5 7.0 0.00 0.00 0.00 16 1009.6
20260502211724 70 220 4.3 7.0 0.00 0.00 0.00 17 1009.6
20260502211223 70 186 3.5 7.8 0.00 0.00 0.00 16 1009.7
20260502210724 70 148 4.3 8.7 0.00 0.00 0.00 16 1009.9
20260502210224 70 213 3.5 9.6 0.00 0.00 0.00 15 1009.8
20260502205724 70 134 3.5 8.7 0.00 0.00 0.00 17 1010.0
20260502205224 70 209 2.6 6.1 0.00 0.00 0.00 18 1010.1
20260502204724 70 201 2.6 5.2 0.00 0.00 0.00 17 1010.1
20260502204224 70 175 2.6 9.6 0.00 0.00 0.00 18 1010.2
20260502203724 70 180 3.5 5.2 0.00 0.00 0.00 18 1010.3
20260502203224 70 203 4.3 9.6 0.00 0.00 0.00 17 1010.4
20260502202724 70 152 3.5 7.0 0.00 0.00 0.00 18 1010.4
20260502202224 70 149 3.5 9.6 0.00 0.00 0.00 19 1010.4
20260502201724 70 207 3.5 10.4 0.00 0.00 0.00 20 1010.6
20260502201224 70 145 2.6 10.4 0.00 0.00 0.00 19 1010.7
20260502200724 70 172 2.6 6.1 0.00 0.00 0.00 19 1010.8
20260502200224 70 165 2.6 4.3 0.00 0.00 0.00 17 1011.0
20260502195724 69 200 2.6 6.1 0.00 0.00 0.00 21 1011.0
20260502195224 69 141 2.6 7.8 0.00 0.00 0.00 16 1011.1
20260502194724 69 178 2.6 5.2 0.00 0.00 0.00 20 1011.1
20260502194224 69 221 2.6 6.1 0.00 0.00 0.00 20 1011.2
20260502193724 69 148 2.6 8.7 0.00 0.00 0.00 19 1011.2
20260502193224 69 212 2.6 6.1 0.00 0.00 0.00 19 1011.3
20260502192724 69 188 2.6 5.2 0.00 0.00 0.00 19 1011.3
20260502192224 69 202 2.6 6.1 0.00 0.00 0.00 21 1011.4
20260502191724 68 195 2.6 7.0 0.00 0.00 0.00 20 1011.5
20260502191224 68 216 2.6 9.6 0.00 0.00 0.00 20 1011.6
20260502190724 68 167 2.6 8.7 0.00 0.00 0.00 19 1011.8
20260502190224 68 169 2.6 7.8 0.00 0.00 0.00 19 1011.8
20260502185724 68 191 2.6 6.1 0.00 0.00 0.00 20 1012.0
20260502185224 68 234 1.7 5.2 0.00 0.00 0.00 21 1012.1
20260502184724 68 235 1.7 5.2 0.00 0.00 0.00 20 1012.2
20260502184224 68 235 2.6 5.2 0.00 0.00 0.00 19 1012.3
20260502183724 68 236 2.6 4.3 0.00 0.00 0.00 19 1012.4
20260502183224 67 236 2.6 6.1 0.00 0.00 0.00 19 1012.4
20260502182724 67 238 2.6 7.8 0.00 0.00 0.00 20 1012.4
20260502182224 67 244 2.6 7.8 0.00 0.00 0.00 19 1012.6
20260502181724 67 245 2.6 5.2 0.00 0.00 0.00 20 1012.6
20260502181224 67 245 2.6 5.2 0.00 0.00 0.00 19 1012.8
20260502180724 67 248 2.6 5.2 0.00 0.00 0.00 19 1012.8
20260502180224 67 250 1.7 5.2 0.00 0.00 0.00 20 1012.9
20260502170224 65 277 1.7 3.5 0.00 0.00 0.00 23 1013.0
20260502164224 64 227 1.7 4.3 0.00 0.00 0.00 26 1013.1
20260502163724 64 199 1.7 4.3 0.00 0.00 0.00 25 1013.1
20260502163224 63 202 1.7 5.2 0.00 0.00 0.00 26 1013.1
20260502162724 63 214 1.7 4.3 0.00 0.00 0.00 25 1013.1
20260502162224 63 197 1.7 6.1 0.00 0.00 0.00 24 1013.2
20260502161724 63 193 1.7 4.3 0.00 0.00 0.00 26 1013.1
20260502161224 62 217 1.7 4.3 0.00 0.00 0.00 26 1013.1
20260502160724 62 220 2.6 5.2 0.00 0.00 0.00 26 1013.1
20260502160224 62 210 2.6 4.3 0.00 0.00 0.00 26 1013.2
20260502152224 62 200 1.7 4.3 0.00 0.00 0.00 27 1013.3
20260502151724 62 183 0.9 3.5 0.00 0.00 0.00 27 1013.3
20260502151224 61 178 0.9 3.5 0.00 0.00 0.00 28 1013.3
20260502150724 61 165 0.9 4.3 0.00 0.00 0.00 28 1013.3
20260502150224 60 46 0.0 3.5 0.00 0.00 0.00 29 1013.4
20260502130724 46 44 0.0 0.0 0.00 0.00 0.00 50 1013.4
20260502130224 45 44 0.0 0.0 0.00 0.00 0.00 49 1013.4
20260502123724 45 44 0.0 1.7 0.00 0.00 0.00 49 1013.4
20260502123224 45 44 0.9 1.7 0.00 0.00 0.00 48 1013.3
20260502122724 44 44 0.0 2.6 0.00 0.00 0.00 48 1013.2
20260502122224 45 44 0.0 0.0 0.00 0.00 0.00 49 1013.3
20260502121724 45 44 0.0 0.0 0.00 0.00 0.00 48 1013.2
20260502121224 45 44 0.0 0.0 0.00 0.00 0.00 48 1013.2
20260502120724 45 44 0.0 0.0 0.00 0.00 0.00 48 1013.2
20260502120224 45 44 0.0 0.0 0.00 0.00 0.00 48 1013.2
20260502115724 45 44 0.0 0.0 0.00 0.00 0.00 48 1013.1
20260502115224 45 44 0.0 0.0 0.00 0.00 0.00 48 1013.2
20260502114724 45 44 0.0 0.0 0.00 0.00 0.00 48 1013.2
20260502114224 45 44 0.0 0.0 0.00 0.00 0.00 48 1013.2
20260502113724 45 44 0.0 0.0 0.00 0.00 0.00 48 1013.2
20260502113224 45 44 0.0 0.0 0.00 0.00 0.00 48 1013.1
20260502112724 45 44 0.0 0.0 0.00 0.00 0.00 48 1013.2
20260502112225 45 44 0.0 0.0 0.00 0.00 0.00 48 1013.3
20260502111724 45 44 0.0 0.0 0.00 0.00 0.00 48 1013.3
20260502111224 45 44 0.0 0.0 0.00 0.00 0.00 47 1013.3
20260502110724 45 44 0.0 0.0 0.00 0.00 0.00 49 1013.3
20260502110224 46 44 0.0 0.0 0.00 0.00 0.00 48 1013.3
20260502105724 46 44 0.0 0.0 0.00 0.00 0.00 47 1013.3
20260502105224 46 44 0.0 0.0 0.00 0.00 0.00 47 1013.3
20260502104725 46 44 0.0 0.0 0.00 0.00 0.00 47 1013.3
20260502104225 46 44 0.0 0.0 0.00 0.00 0.00 47 1013.3
20260502103725 46 44 0.0 0.0 0.00 0.00 0.00 47 1013.3
20260502103225 46 44 0.0 0.0 0.00 0.00 0.00 46 1013.3
20260502102725 46 44 0.0 0.0 0.00 0.00 0.00 46 1013.2
20260502102225 46 44 0.0 0.0 0.00 0.00 0.00 46 1013.2
20260502101725 47 44 0.0 0.0 0.00 0.00 0.00 46 1013.2
20260502101225 47 44 0.0 0.0 0.00 0.00 0.00 45 1013.1
20260502100725 47 44 0.0 0.0 0.00 0.00 0.00 45 1013.0
20260502100225 47 44 0.0 0.0 0.00 0.00 0.00 45 1013.0
20260502091225 49 44 0.0 0.0 0.00 0.00 0.00 43 1012.9
20260502090725 48 44 0.0 0.0 0.00 0.00 0.00 42 1012.9
20260502090225 48 44 0.0 0.0 0.00 0.00 0.00 43 1013.0
20260502071225 48 44 0.0 0.0 0.00 0.00 0.00 42 1013.4
20260502070725 49 44 0.0 0.0 0.00 0.00 0.00 42 1013.4
20260502070225 49 44 0.0 0.0 0.00 0.00 0.00 42 1013.4
20260502065725 49 44 0.0 0.0 0.00 0.00 0.00 41 1013.4
20260502065225 49 44 0.0 0.0 0.00 0.00 0.00 39 1013.4
20260502064725 49 44 0.0 0.0 0.00 0.00 0.00 41 1013.4
20260502064225 49 44 0.0 0.0 0.00 0.00 0.00 40 1013.3
20260502063725 48 44 0.0 0.0 0.00 0.00 0.00 43 1013.2
20260502063225 49 44 0.0 0.0 0.00 0.00 0.00 42 1013.3
20260502062725 49 44 0.0 0.0 0.00 0.00 0.00 41 1013.3
20260502062225 49 44 0.0 0.0 0.00 0.00 0.00 39 1013.2
20260502061725 49 44 0.0 0.0 0.00 0.00 0.00 39 1013.2
20260502061225 50 44 0.0 0.0 0.00 0.00 0.00 39 1013.2
20260502060725 50 44 0.0 0.0 0.00 0.00 0.00 40 1013.1
20260502060225 50 44 0.0 0.0 0.00 0.00 0.00 40 1013.1
20260502055725 50 44 0.0 0.0 0.00 0.00 0.00 39 1013.1
20260502055225 50 44 0.0 0.0 0.00 0.00 0.00 39 1013.1
20260502054725 50 44 0.0 0.0 0.00 0.00 0.00 41 1013.0
20260502054225 50 44 0.0 0.0 0.00 0.00 0.00 39 1013.0
20260502053725 50 44 0.0 0.0 0.00 0.00 0.00 38 1013.1
20260502053225 51 44 0.0 0.0 0.00 0.00 0.00 38 1013.0
20260502052725 51 44 0.0 0.0 0.00 0.00 0.00 38 1013.0
20260502052225 51 44 0.0 0.0 0.00 0.00 0.00 37 1013.0
20260502051725 52 44 0.0 0.0 0.00 0.00 0.00 37 1013.0
20260502051225 52 44 0.0 0.0 0.00 0.00 0.00 37 1013.0
20260502050725 52 44 0.0 0.0 0.00 0.00 0.00 36 1013.1
20260502050225 52 44 0.0 0.0 0.00 0.00 0.00 36 1013.0
20260502045725 52 44 0.0 0.0 0.00 0.00 0.00 36 1013.1
20260502045225 52 44 0.0 0.0 0.00 0.00 0.00 36 1013.0
20260502044725 52 44 0.0 0.0 0.00 0.00 0.00 37 1013.1
20260502044225 52 44 0.0 0.0 0.00 0.00 0.00 37 1013.1
20260502043725 52 44 0.0 0.0 0.00 0.00 0.00 37 1013.0
20260502043225 52 44 0.0 0.0 0.00 0.00 0.00 37 1013.1
20260502042725 52 44 0.0 0.0 0.00 0.00 0.00 37 1013.0
20260502042225 52 44 0.0 0.0 0.00 0.00 0.00 37 1013.0
20260502041725 53 44 0.0 0.0 0.00 0.00 0.00 37 1013.0
20260502041225 53 44 0.0 0.0 0.00 0.00 0.00 37 1013.0
20260502040725 53 44 0.0 0.0 0.00 0.00 0.00 36 1012.8
20260502040225 53 44 0.0 0.0 0.00 0.00 0.00 36 1012.8
20260502035725 53 44 0.0 0.0 0.00 0.00 0.00 35 1012.7
20260502035225 53 44 0.0 0.0 0.00 0.00 0.00 35 1012.7
20260502034725 54 44 0.0 0.0 0.00 0.00 0.00 35 1012.6
20260502034225 54 44 0.0 0.9 0.00 0.00 0.00 35 1012.6
20260502033725 54 44 0.0 2.6 0.00 0.00 0.00 35 1012.5
20260502033225 54 44 0.0 0.0 0.00 0.00 0.00 34 1012.5
20260502032725 54 44 0.0 0.0 0.00 0.00 0.00 35 1012.4
20260502032225 54 44 0.0 0.0 0.00 0.00 0.00 35 1012.3
20260502031725 54 44 0.0 0.0 0.00 0.00 0.00 34 1012.3
20260502031225 54 44 0.0 1.7 0.00 0.00 0.00 34 1012.2
20260502030725 54 44 0.0 0.9 0.00 0.00 0.00 35 1012.1
20260502030225 54 44 0.0 0.0 0.00 0.00 0.00 35 1012.0
20260502025725 55 44 0.0 0.0 0.00 0.00 0.00 35 1011.9
20260502025225 55 44 0.0 0.0 0.00 0.00 0.00 34 1011.9
20260502024725 55 44 0.0 0.0 0.00 0.00 0.00 34 1011.8
20260502024225 56 44 0.0 0.0 0.00 0.00 0.00 34 1011.8
20260502023725 56 44 0.0 0.0 0.00 0.00 0.00 34 1011.7
20260502023225 56 44 0.0 1.7 0.00 0.00 0.00 33 1011.8
20260502022725 56 44 0.0 3.5 0.00 0.00 0.00 32 1011.8
20260502022225 57 44 0.0 0.0 0.00 0.00 0.00 31 1011.8
20260502021725 57 44 0.0 0.0 0.00 0.00 0.00 31 1011.7
20260502021225 57 44 0.0 0.9 0.00 0.00 0.00 31 1011.7
20260502020725 58 44 0.9 2.6 0.00 0.00 0.00 30 1011.7
20260502020225 58 44 0.9 5.2 0.00 0.00 0.00 30 1011.6
20260502015725 58 45 0.9 3.5 0.00 0.00 0.00 30 1011.7
20260502015225 59 45 0.9 3.5 0.00 0.00 0.00 29 1011.6
20260502014725 59 45 0.9 3.5 0.00 0.00 0.00 30 1011.6
20260502014225 59 45 0.9 5.2 0.00 0.00 0.00 29 1011.5
20260502013725 60 46 0.9 2.6 0.00 0.00 0.00 29 1011.5
20260502013225 60 46 1.7 3.5 0.00 0.00 0.00 28 1011.5
20260502012725 61 47 1.7 4.3 0.00 0.00 0.00 28 1011.5
20260502012226 61 48 0.9 3.5 0.00 0.00 0.00 28 1011.5
20260502011725 61 48 0.9 3.5 0.00 0.00 0.00 28 1011.5
20260502011225 61 48 1.7 4.3 0.00 0.00 0.00 27 1011.4
20260502010725 62 43 1.7 3.5 0.00 0.00 0.00 27 1011.5
20260502010225 62 43 1.7 3.5 0.00 0.00 0.00 26 1011.6
20260502005725 62 42 1.7 4.3 0.00 0.00 0.00 27 1011.6
20260502005225 62 37 2.6 5.2 0.00 0.00 0.00 26 1011.6
20260502004725 62 53 1.7 5.2 0.00 0.00 0.00 26 1011.5
20260502004225 62 38 1.7 4.3 0.00 0.00 0.00 26 1011.5
20260502003725 62 34 1.7 5.2 0.00 0.00 0.00 25 1011.6
20260502003226 62 29 1.7 3.5 0.00 0.00 0.00 25 1011.6
20260502002726 62 44 2.6 4.3 0.00 0.00 0.00 25 1011.6
20260502002225 63 24 2.6 5.2 0.00 0.00 0.00 26 1011.6
20260502001725 63 39 1.7 6.1 0.00 0.00 0.00 25 1011.6
20260502001226 63 61 1.7 4.3 0.00 0.00 0.00 26 1011.6
20260502000725 63 44 0.9 4.3 0.00 0.00 0.00 26 1011.6
20260502000226 63 44 1.7 5.2 0.00 0.00 0.00 25 1011.7
20260501235726 63 76 1.7 7.0 0.00 0.00 0.00 25 1011.7
20260501235226 63 69 1.7 4.3 0.00 0.00 0.00 25 1011.6
20260501234726 63 46 1.7 4.3 0.00 0.00 0.00 25 1011.6